EW8522 Weather Reports


Display with metric or nautical units.
time (UTC)temp
F
wind
direction
speed
MPH
gust
MPH
rain 1hr
in
rain 24hr
in
rain mn
in
humidity
%
barometer
mb
20260507031516 59 328 0.0 0.0 0.00 0.00 0.00 58 1010.3
20260507030012 60 328 0.0 0.0 0.00 0.00 0.00 57 1010.1
20260507024509 60 328 0.0 0.0 0.00 0.00 0.00 57 1009.8
20260507023007 61 328 0.0 0.0 0.00 0.00 0.00 57 1009.7
20260507021506 61 328 0.0 0.0 0.00 0.00 0.00 55 1009.7
20260507020012 62 328 0.0 0.0 0.00 0.00 0.00 55 1009.6
20260507014511 62 328 0.0 0.0 0.00 0.00 0.00 54 1009.4
20260507013010 62 328 0.0 0.0 0.00 0.00 0.00 53 1009.5
20260507011510 63 328 0.0 0.0 0.00 0.00 0.00 53 1009.4
20260507010003 63 328 0.0 0.0 0.00 0.00 0.00 53 1009.3
20260507004502 64 328 0.0 0.0 0.00 0.00 0.00 53 1009.2
20260507003001 64 328 0.0 0.0 0.00 0.00 0.00 54 1009.2
20260507001606 65 328 0.0 0.0 0.00 0.00 0.00 53 1009.0
20260507000009 65 328 0.0 0.0 0.00 0.00 0.00 52 1008.7
20260506234508 65 331 0.0 0.0 0.00 0.00 0.00 53 1008.6
20260506233008 66 331 0.0 0.0 0.00 0.00 0.00 52 1008.4
20260506231512 66 332 0.0 0.0 0.00 0.00 0.00 51 1008.3
20260506230004 66 334 0.0 0.0 0.00 0.00 0.00 50 1008.2
20260506224503 67 346 0.0 0.0 0.00 0.00 0.00 48 1008.2
20260506223003 68 346 0.0 0.0 0.00 0.00 0.00 47 1008.1
20260506221505 68 346 0.0 0.0 0.00 0.00 0.00 45 1008.3
20260506220005 69 346 0.0 0.0 0.00 0.00 0.00 44 1008.4
20260506214504 69 346 0.0 0.0 0.00 0.00 0.00 43 1008.5
20260506213011 69 346 0.0 0.0 0.00 0.00 0.00 43 1008.5
20260506211504 69 346 0.0 0.0 0.00 0.00 0.00 41 1008.6
20260506210005 69 346 0.0 0.0 0.00 0.00 0.00 41 1008.5
20260506204601 68 346 0.0 0.0 0.00 0.00 0.00 43 1008.5
20260506203100 67 346 0.0 0.0 0.00 0.00 0.00 45 1008.5
20260506201620 67 346 0.0 0.0 0.00 0.00 0.00 46 1008.5
20260506200051 66 346 0.0 0.0 0.00 0.00 0.00 46 1008.5
20260506194554 66 346 0.0 0.0 0.00 0.00 0.00 46 1008.5
20260506193054 66 346 0.0 0.0 0.00 0.00 0.00 47 1008.5
20260506191550 66 346 0.0 0.0 0.00 0.00 0.00 47 1008.7
20260506190100 66 346 0.0 0.0 0.00 0.00 0.00 46 1008.7
20260506184602 65 346 0.0 0.0 0.00 0.00 0.00 50 1008.5
20260506183057 65 346 0.0 0.0 0.00 0.00 0.00 53 1008.8
20260506181556 66 346 0.0 0.0 0.00 0.00 0.00 54 1008.7
20260506180055 66 346 0.0 0.0 0.00 0.00 0.00 53 1008.6
20260506174553 66 346 0.0 0.0 0.00 0.00 0.00 53 1008.4
20260506173107 64 346 0.0 0.0 0.00 0.00 0.00 57 1008.4
20260506171554 62 346 0.0 0.0 0.00 0.00 0.00 63 1008.4
20260506170036 60 346 0.0 0.0 0.00 0.00 0.00 65 1008.5
20260506164536 0 0.0 0.0 0.00 0.00 0.00 1008.5
20260506163049 0 0.0 0.0 0.00 0.00 0.00 1008.6
20260506161538 0 0.0 0.0 0.00 0.00 0.00 1008.7
20260506160027 0 0.0 0.0 0.00 0.00 0.00 1008.8
20260506154530 0 0.0 0.0 0.00 0.00 0.00 1008.9
20260506153018 0 0.0 0.0 0.00 0.00 0.00 1008.9
20260506151515 0 0.0 0.0 0.00 0.00 0.00 1008.8
20260506150011 0 0.0 0.0 0.00 0.00 0.00 1009.1
20260506144509 0 0.0 0.0 0.00 0.00 0.00 1009.2
20260506143007 0 0.0 0.0 0.00 0.00 0.00 1009.2
20260506141600 0 0.0 0.0 0.00 0.00 0.00 1009.1
20260506134553 0 0.0 0.0 0.00 0.00 0.00 1009.0
20260506133050 0 0.0 0.0 0.00 0.00 0.00 1009.0
20260506131544 0 0.0 0.0 0.00 0.00 0.00 1009.0
20260506130042 0 0.0 0.0 0.00 0.00 0.00 1008.9
20260506124539 0 0.0 0.0 0.00 0.00 0.00 1008.8
20260506123035 0 0.0 0.0 0.00 0.00 0.00 1008.7
20260506121531 0 0.0 0.0 0.00 0.00 0.00 1008.6
20260506120031 0 0.0 0.0 0.00 0.00 0.00 1008.5
20260506114524 0 0.0 0.0 0.00 0.00 0.00 1008.6
20260506113019 0 0.0 0.0 0.00 0.00 0.00 1008.5
20260506111512 0 0.0 0.0 0.00 0.00 0.00 1008.5
20260506110010 0 0.0 0.0 0.00 0.00 0.00 1008.3
20260506104505 0 0.0 0.0 0.00 0.00 0.00 1008.2
20260506103002 0 0.0 0.0 0.00 0.00 0.00 1008.1
20260506101558 0 0.0 0.0 0.00 0.00 0.00 1008.0
20260506100055 0 0.0 0.0 0.00 0.00 0.00 1008.0
20260506094551 0 0.0 0.0 0.00 0.00 0.00 1008.0
20260506093105 0 0.0 0.0 0.00 0.00 0.00 1008.0
20260506091546 0 0.0 0.0 0.00 0.00 0.00 1007.9
20260506090042 0 0.0 0.0 0.00 0.00 0.00 1007.8
20260506084536 0 0.0 0.0 0.00 0.00 0.00 1007.8
20260506083034 0 0.0 0.0 0.00 0.00 0.00 1007.9
20260506081527 0 0.0 0.0 0.00 0.00 0.00 1007.7
20260506073018 0 0.0 0.0 0.00 0.00 0.00 1007.4
20260506071514 0 0.0 0.0 0.00 0.00 0.00 1007.3
20260506061512 0 0.0 0.0 0.00 0.00 0.00 1006.9
20260506044506 0 0.0 0.0 0.00 0.00 0.00 1006.5
20260506043002 0 0.0 0.0 0.00 0.00 0.00 1006.2
20260506041609 0 0.0 0.0 0.00 0.00 0.00 1006.1
20260506040038 0 0.0 0.0 0.00 0.00 0.00 1006.0
20260506034534 0 0.0 0.0 0.00 0.00 0.00 1005.8
20260506033033 0 0.0 0.0 0.00 0.00 0.00 1005.5